FW3157 Weather Reports


time (UTC)temp
C
wind
direction
speed
KPH
gust
KPH
rain 1hr
cm
rain 24hr
cm
rain mn
cm
humidity
%
barometer
mb
20260504100436 18 175 3.2 9.7 0.00 0.00 0.00 41 1019.2
20260504081731 15 271 4.8 9.7 0.00 0.00 0.00 44 1020.2
20260504081224 15 282 4.8 9.7 0.00 0.00 0.00 43 1020.3
20260504080719 15 251 3.2 9.7 0.00 0.00 0.00 43 1020.2
20260504080213 15 281 4.8 11.3 0.00 0.00 0.00 43 1020.2
20260504050513 12 250 1.6 16.1 0.00 0.05 0.00 61 1020.2
20260504050007 12 99 1.6 1.6 0.00 0.05 0.00 49 1020.1
20260504045726 12 99 0.0 1.6 0.00 0.05 0.00 49 1020.1
20260504044959 12 99 0.0 1.6 0.00 0.05 0.00 50 1020.0
20260504044459 12 99 0.0 1.6 0.00 0.05 0.00 52 1020.0
20260504043957 12 99 0.0 3.2 0.00 0.05 0.00 55 1020.0
20260504043457 11 99 1.6 3.2 0.00 0.05 0.00 55 1019.9
20260504043004 11 99 1.6 3.2 0.00 0.08 0.00 56 1019.9
20260504042455 11 46 0.0 1.6 0.00 0.08 0.00 57 1020.0
20260504041955 11 46 0.0 1.6 0.00 0.08 0.00 59 1020.0
20260504041455 11 46 0.0 1.6 0.00 0.08 0.00 60 1020.0
20260504040955 11 46 0.0 1.6 0.00 0.08 0.00 61 1020.0
20260504040455 10 46 0.0 0.0 0.00 0.08 0.00 63 1019.9
20260504035954 10 46 0.0 0.0 0.00 0.08 0.00 65 1019.9
20260504035455 10 46 0.0 0.0 0.00 0.08 0.00 65 1019.8
20260504035216 10 46 0.0 1.6 0.00 0.08 0.00 66 1019.8
20260504034450 10 46 0.0 1.6 0.00 0.08 0.00 66 1019.7
20260504033951 10 46 0.0 1.6 0.00 0.08 0.00 66 1019.7
20260504033450 10 46 0.0 1.6 0.00 0.08 0.00 66 1019.6
20260504033217 10 46 0.0 1.6 0.00 0.08 0.00 66 1019.6
20260504032709 10 46 0.0 1.6 0.00 0.08 0.00 65 1019.6
20260504031950 10 46 0.0 1.6 0.00 0.08 0.00 66 1019.5
20260504031450 10 46 0.0 1.6 0.00 0.08 0.00 66 1019.5
20260504030950 10 46 1.6 4.8 0.00 0.08 0.00 66 1019.5
20260504030450 10 46 1.6 4.8 0.00 0.08 0.00 66 1019.5
20260504025951 10 296 1.6 4.8 0.00 0.08 0.00 65 1019.5
20260504025709 10 296 1.6 4.8 0.00 0.08 0.00 65 1019.5
20260504024951 10 296 3.2 6.4 0.00 0.08 0.00 66 1019.5
20260504024451 10 296 3.2 6.4 0.00 0.08 0.00 68 1019.6
20260504023951 10 279 1.6 6.4 0.00 0.08 0.00 70 1019.6
20260504023450 10 296 3.2 8.0 0.00 0.08 0.00 72 1019.7
20260504022951 10 308 3.2 8.0 0.00 0.08 0.00 73 1019.6
20260504022711 10 262 3.2 4.8 0.00 0.08 0.00 73 1019.6
20260504021948 10 277 3.2 4.8 0.00 0.08 0.00 73 1019.5
20260504021442 10 263 3.2 4.8 0.00 0.08 0.00 72 1019.6
20260504020935 10 308 3.2 8.0 0.00 0.08 0.00 71 1019.5
20260504020917 10 308 1.6 8.0 0.00 0.08 0.00 67 1019.5
20260504015924 10 15 3.2 6.4 0.00 0.08 0.00 62 1019.4
20260504015417 10 291 3.2 9.7 0.00 0.08 0.00 59 1019.5
20260504014912 10 304 1.6 9.7 0.00 0.08 0.00 58 1019.5
20260504014406 10 83 0.0 4.8 0.00 0.08 0.00 59 1019.4
20260504013900 10 83 1.6 4.8 0.00 0.08 0.00 60 1019.3
20260504013613 10 91 3.2 4.8 0.00 0.08 0.00 61 1019.3
20260504013114 10 91 1.6 4.8 0.00 0.08 0.00 61 1019.3
20260504012344 10 99 1.6 3.2 0.00 0.08 0.00 62 1019.3
20260504011835 11 99 1.6 6.4 0.00 0.08 0.00 61 1019.2
20260504011337 11 99 3.2 6.4 0.00 0.08 0.00 60 1019.2
20260504011102 11 99 3.2 6.4 0.00 0.08 0.00 60 1019.1
20260504010332 11 91 1.6 6.4 0.00 0.08 0.00 60 1019.1
20260504005830 10 101 1.6 4.8 0.00 0.08 0.00 61 1019.1
20260504005328 11 101 3.2 4.8 0.00 0.08 0.00 61 1019.1
20260504004829 10 95 3.2 6.4 0.00 0.08 0.00 61 1019.1
20260504004328 10 102 4.8 8.0 0.00 0.08 0.00 61 1019.1
20260504003826 11 103 4.8 8.0 0.00 0.08 0.00 61 1019.1
20260504003324 11 105 1.6 8.0 0.00 0.08 0.00 61 1019.0
20260504002824 11 107 0.0 0.0 0.00 0.08 0.00 62 1019.0
20260504002544 11 107 0.0 1.6 0.00 0.08 0.00 62 1019.0
20260504001822 11 107 0.0 3.2 0.00 0.08 0.00 63 1019.0
20260504001322 11 107 1.6 3.2 0.00 0.08 0.00 63 1019.1
20260504000821 11 107 1.6 3.2 0.00 0.08 0.00 62 1019.1
20260504000540 11 107 1.6 3.2 0.00 0.08 0.00 60 1019.1
20260503235820 11 91 0.0 3.2 0.00 0.08 0.00 57 1019.1
20260503235319 11 91 0.0 3.2 0.00 0.08 0.00 57 1019.1
20260503234821 11 91 0.0 3.2 0.00 0.08 0.00 56 1019.1
20260503234314 11 91 1.6 3.2 0.00 0.08 0.00 55 1019.1
20260503233818 11 91 1.6 3.2 0.00 0.08 0.00 56 1019.1
20260503233306 11 91 1.6 6.4 0.00 0.08 0.00 57 1019.1
20260503232759 11 91 3.2 6.4 0.00 0.08 0.00 56 1019.1
20260503232254 12 105 0.0 6.4 0.00 0.08 0.00 57 1019.2
20260503231747 12 297 0.0 0.0 0.00 0.08 0.00 58 1019.2
20260503231500 12 297 0.0 0.0 0.00 0.08 0.00 58 1019.2
20260503230736 12 297 0.0 0.0 0.00 0.08 0.00 58 1019.2
20260503230231 12 297 0.0 0.0 0.00 0.08 0.00 57 1019.2
20260503230201 12 297 0.0 1.6 0.00 0.08 0.00 57 1019.2
20260503225219 12 297 0.0 4.8 0.00 0.08 0.00 56 1019.2
20260503224711 12 297 1.6 4.8 0.00 0.08 0.00 56 1019.1
20260503224425 12 99 1.6 3.2 0.00 0.08 0.00 53 1019.1
20260503223659 12 99 1.6 3.2 0.00 0.08 0.00 51 1019.1
20260503223154 12 99 0.0 1.6 0.00 0.08 0.00 50 1019.0
20260503222648 12 99 0.0 1.6 0.00 0.08 0.00 49 1019.0
20260503222406 12 99 0.0 1.6 0.00 0.08 0.00 49 1019.0
20260503221636 12 99 1.6 3.2 0.00 0.08 0.00 48 1019.0
20260503221129 12 99 1.6 4.8 0.00 0.08 0.00 48 1018.9
20260503220624 12 99 1.6 4.8 0.00 0.08 0.00 48 1018.9
20260503220117 12 128 0.0 3.2 0.00 0.08 0.00 49 1019.0
20260503215612 12 137 0.0 3.2 0.00 0.08 0.00 49 1019.0
20260503215106 12 137 0.0 3.2 0.00 0.08 0.00 49 1018.9
20260503214600 12 137 0.0 3.2 0.00 0.08 0.00 48 1019.0
20260503214054 13 137 1.6 4.8 0.00 0.08 0.00 48 1019.0
20260503213548 13 137 1.6 4.8 0.00 0.08 0.00 47 1018.9
20260503213041 13 99 3.2 6.4 0.00 0.08 0.00 46 1018.8
20260503212535 13 116 1.6 8.0 0.00 0.08 0.00 46 1018.8
20260503212029 13 117 1.6 8.0 0.00 0.08 0.00 46 1018.8
20260503212015 13 117 1.6 6.4 0.00 0.08 0.00 47 1018.8
20260503211017 13 130 1.6 6.4 0.00 0.08 0.00 48 1018.8
20260503210512 13 108 3.2 6.4 0.00 0.08 0.00 48 1018.8
20260503210225 13 109 4.8 11.3 0.00 0.08 0.00 48 1018.8
20260503205500 13 101 4.8 11.3 0.00 0.08 0.08 48 1018.8
20260503204954 13 96 4.8 11.3 0.00 0.08 0.08 47 1018.8
20260503204448 13 98 4.8 11.3 0.00 0.08 0.08 47 1018.8
20260503203942 13 94 6.4 11.3 0.00 0.08 0.08 47 1018.8
20260503203654 13 99 4.8 11.3 0.00 0.08 0.08 46 1018.7
20260503202929 13 103 3.2 8.0 0.00 0.08 0.08 46 1018.8
20260503202423 13 88 1.6 6.4 0.00 0.08 0.08 45 1018.9
20260503201917 13 113 1.6 8.0 0.00 0.08 0.08 46 1018.8
20260503201412 13 140 3.2 8.0 0.00 0.08 0.08 46 1018.8
20260503200906 13 100 3.2 8.0 0.00 0.08 0.08 47 1018.8
20260503200400 13 103 3.2 8.0 0.00 0.08 0.08 47 1018.8
20260503195854 13 108 4.8 11.3 0.00 0.08 0.08 48 1018.8
20260503195347 13 106 8.0 14.5 0.00 0.08 0.08 48 1018.8
20260503194843 13 108 8.0 14.5 0.00 0.08 0.08 47 1018.7
20260503194336 13 106 6.4 12.9 0.00 0.08 0.08 48 1018.7
20260503193829 13 103 8.0 16.1 0.00 0.08 0.08 49 1018.7
20260503193324 13 116 8.0 16.1 0.00 0.08 0.08 49 1018.7
20260503192818 13 116 9.7 16.1 0.00 0.08 0.08 48 1018.7
20260503192313 13 122 9.7 16.1 0.00 0.08 0.08 48 1018.7
20260503191806 13 100 8.0 14.5 0.00 0.08 0.08 48 1018.6
20260503191259 14 88 8.0 12.9 0.00 0.08 0.08 48 1018.6
20260503191022 14 91 6.4 12.9 0.00 0.08 0.08 49 1018.6
20260503190248 14 113 4.8 12.9 0.00 0.08 0.08 48 1018.6
20260503190010 14 72 3.2 9.7 0.00 0.08 0.08 46 1018.5
20260503185455 15 104 1.6 9.7 0.00 0.08 0.08 45 1018.6
20260503184945 15 120 3.2 8.0 0.00 0.08 0.08 45 1018.5
20260503184225 15 104 3.2 9.7 0.00 0.08 0.08 43 1018.4
20260503183717 15 145 3.2 9.7 0.00 0.08 0.08 40 1018.3
20260503183212 16 122 1.6 8.0 0.00 0.08 0.08 36 1018.3
20260503182929 16 95 1.6 6.4 0.00 0.08 0.08 35 1018.2
20260503182202 16 112 1.6 8.0 0.00 0.08 0.08 36 1018.1
20260503181702 16 112 3.2 8.0 0.00 0.08 0.08 39 1018.0
20260503181202 16 130 3.2 8.0 0.00 0.08 0.08 38 1018.0
20260503180703 16 113 4.8 9.7 0.00 0.08 0.08 36 1017.9
20260503180202 15 97 4.8 11.3 0.00 0.08 0.08 37 1017.9
20260503175702 16 120 3.2 11.3 0.00 0.08 0.08 37 1017.8
20260503175427 16 141 4.8 9.7 0.00 0.08 0.08 37 1017.8
20260503175159 16 94 4.8 9.7 0.00 0.08 0.08 37 1017.8
20260503174202 16 94 4.8 9.7 0.00 0.08 0.08 37 1017.7
20260503173702 16 94 3.2 9.7 0.00 0.08 0.08 36 1017.6
20260503173202 16 89 3.2 8.0 0.00 0.08 0.08 36 1017.6
20260503172702 16 86 3.2 9.7 0.00 0.08 0.08 36 1017.5
20260503172202 16 74 4.8 9.7 0.00 0.08 0.08 35 1017.4
20260503171702 17 81 3.2 9.7 0.00 0.08 0.08 33 1017.4
20260503171202 17 82 1.6 4.8 0.00 0.08 0.08 31 1017.3
20260503170915 17 93 1.6 6.4 0.00 0.08 0.08 31 1017.2
20260503170200 17 82 3.2 6.4 0.00 0.08 0.08 30 1017.2
20260503160139 18 73 3.2 8.0 0.00 0.08 0.08 29 1017.0
20260503150854 17 302 3.2 11.3 0.00 0.08 0.08 30 1017.1
20260503150133 17 226 3.2 11.3 0.00 0.08 0.08 31 1017.1
20260503140123 17 217 1.6 9.7 0.00 0.08 0.08 35 1017.5
20260503130615 16 241 4.8 16.1 0.00 0.08 0.08 39 1017.9
20260503130116 16 248 6.4 17.7 0.00 0.08 0.08 39 1017.9
20260503110416 15 202 6.4 12.9 0.00 0.08 0.08 45 1018.7